FW9176 Weather Reports


time (UTC)temp
C
wind
direction
speed
KPH
gust
KPH
rain 1hr
cm
rain 24hr
cm
rain mn
cm
humidity
%
barometer
mb
20260509161554 20 278 0.0 9.7 0.00 0.00 0.00 57 1002.3
20260509160052 18 298 0.0 6.4 0.00 0.00 0.00 60 1002.4
20260509154556 18 236 1.6 8.0 0.00 0.00 0.00 65 1002.3
20260509153052 17 226 0.0 6.4 0.00 0.00 0.00 66 1002.3
20260509151552 17 263 0.0 6.4 0.00 0.00 0.00 64 1002.5
20260509150054 16 0 0.0 6.4 0.00 0.00 0.00 67 1002.5
20260509144552 16 0 0.0 8.0 0.00 0.00 0.00 69 1002.6
20260509143058 15 307 0.0 12.9 0.00 0.00 0.00 70 1002.2
20260509141606 15 292 1.6 9.7 0.00 0.00 0.00 71 1002.3
20260509140059 14 0 1.6 8.0 0.00 0.00 0.00 73 1002.2
20260509134558 14 0 1.6 6.4 0.00 0.00 0.00 74 1002.2
20260509133050 13 0 0.0 6.4 0.00 0.00 0.00 76 1002.3
20260509131551 13 301 0.0 16.1 0.00 0.00 0.00 76 1002.3
20260509130053 13 255 0.0 6.4 0.00 0.00 0.00 77 1002.3
20260509124551 12 231 1.6 6.4 0.00 0.00 0.00 79 1002.3
20260509123054 12 230 0.0 4.8 0.00 0.00 0.00 82 1002.2
20260509121555 11 188 0.0 1.6 0.00 0.00 0.00 84 1002.1
20260509120054 11 252 0.0 6.4 0.00 0.00 0.00 86 1002.2
20260509114551 11 0 0.0 4.8 0.00 0.00 0.00 86 1002.1
20260509113053 11 0 0.0 3.2 0.00 0.00 0.00 86 1002.0
20260509111552 11 181 0.0 4.8 0.00 0.00 0.00 86 1001.6
20260509110054 11 200 0.0 6.4 0.00 0.00 0.00 86 1001.6
20260509104552 11 0 0.0 8.0 0.00 0.00 0.00 86 1001.6
20260509103056 11 231 0.0 4.8 0.00 0.00 0.00 86 1001.6
20260509101556 11 0 0.0 3.2 0.00 0.00 0.00 85 1001.8
20260509100053 11 0 1.6 4.8 0.00 0.00 0.00 85 1001.9
20260509094552 11 224 0.0 3.2 0.00 0.00 0.00 85 1002.1
20260509093057 11 0 0.0 8.0 0.00 0.00 0.00 85 1002.2
20260509091555 11 0 0.0 4.8 0.00 0.00 0.00 85 1002.4
20260509090055 11 229 0.0 1.6 0.00 0.00 0.00 84 1002.5
20260509084558 11 205 0.0 8.0 0.00 0.00 0.00 84 1002.5
20260509083056 11 0 0.0 3.2 0.00 0.00 0.00 83 1002.5
20260509081556 11 0 0.0 3.2 0.00 0.00 0.00 83 1002.4
20260509080059 11 0 0.0 4.8 0.00 0.00 0.00 82 1002.3
20260509074557 11 0 0.0 3.2 0.00 0.00 0.00 81 1002.7
20260509073052 11 0 0.0 6.4 0.00 0.00 0.00 81 1002.6
20260509071552 12 0 0.0 1.6 0.00 0.00 0.00 80 1003.0
20260509070053 12 0 0.0 1.6 0.00 0.00 0.00 79 1003.0
20260509064554 12 0 0.0 3.2 0.00 0.00 0.00 79 1003.1
20260509063053 12 0 0.0 3.2 0.00 0.00 0.00 78 1003.2
20260509061553 12 0 0.0 1.6 0.00 0.00 0.00 78 1003.3
20260509060055 12 0 0.0 6.4 0.00 0.00 0.00 78 1003.5
20260509054554 12 285 0.0 6.4 0.00 0.00 0.00 78 1003.6
20260509053058 13 0 0.0 6.4 0.00 0.00 0.00 78 1003.7
20260509051559 13 0 0.0 6.4 0.00 0.00 0.00 77 1003.5
20260509050054 13 0 0.0 6.4 0.00 0.00 0.00 76 1003.7
20260509044552 13 0 0.0 4.8 0.00 0.00 0.00 76 1003.6
20260509043050 13 0 0.0 11.3 0.00 0.00 0.00 75 1003.7
20260509041555 13 209 0.0 6.4 0.00 0.00 0.00 74 1003.7
20260509040057 13 126 0.0 4.8 0.00 0.00 0.00 73 1004.0
20260509034552 14 129 0.0 6.4 0.00 0.00 0.00 72 1003.9
20260509033101 14 174 0.0 6.4 0.00 0.00 0.00 71 1003.9
20260509031553 14 0 0.0 8.0 0.00 0.00 0.00 71 1004.0
20260509030054 14 0 0.0 8.0 0.00 0.00 0.00 70 1004.0
20260509024550 14 165 0.0 4.8 0.00 0.00 0.00 69 1004.1
20260509023101 13 151 0.0 4.8 0.00 0.00 0.00 68 1004.1
20260509021552 13 0 0.0 0.0 0.00 0.00 0.00 67 1004.2
20260509020057 14 0 0.0 1.6 0.00 0.00 0.00 66 1004.0
20260509014553 14 0 0.0 0.0 0.00 0.00 0.00 66 1003.9
20260509013055 15 0 0.0 1.6 0.00 0.00 0.00 65 1003.8
20260509011553 15 0 0.0 1.6 0.00 0.00 0.00 64 1003.7
20260509010051 15 0 0.0 0.0 0.00 0.00 0.00 63 1003.7
20260509004559 16 0 0.0 1.6 0.00 0.00 0.00 62 1003.8
20260509003051 16 0 0.0 1.6 0.00 0.00 0.00 61 1003.8
20260509001553 16 94 0.0 1.6 0.00 0.00 0.00 61 1003.8
20260509000055 17 80 0.0 1.6 0.00 0.00 0.00 60 1003.8
20260508234555 17 0 0.0 3.2 0.00 0.00 0.00 60 1004.0
20260508233112 17 60 0.0 3.2 0.00 0.00 0.00 59 1003.9
20260508231556 17 0 0.0 1.6 0.00 0.00 0.00 60 1004.0
20260508230058 17 75 0.0 3.2 0.00 0.00 0.00 61 1004.0
20260508224615 17 80 1.6 3.2 0.00 0.08 0.00 61 1004.1
20260508223052 17 0 0.0 3.2 0.00 0.08 0.00 62 1004.2
20260508221551 17 0 0.0 4.8 0.00 0.08 0.00 62 1004.1
20260508220050 17 0 0.0 3.2 0.00 0.08 0.00 61 1004.2
20260508214551 17 0 0.0 3.2 0.00 0.10 0.00 60 1004.3
20260508213052 17 0 1.6 4.8 0.00 0.10 0.00 60 1004.3
20260508211552 17 0 1.6 4.8 0.00 0.10 0.00 60 1004.3
20260508210057 18 77 0.0 6.4 0.00 0.10 0.00 58 1004.4
20260508204555 18 0 0.0 1.6 0.00 0.10 0.00 51 1004.5
20260508203056 18 0 0.0 4.8 0.00 0.10 0.00 46 1004.6
20260508201555 18 0 0.0 4.8 0.00 0.10 0.00 56 1004.9
20260508200104 18 68 1.6 4.8 0.00 0.10 0.00 56 1005.2
20260508194558 19 30 0.0 6.4 0.00 0.10 0.00 44 1005.4
20260508193104 18 207 1.6 8.0 0.00 0.10 0.00 47 1005.6
20260508191556 18 114 0.0 3.2 0.00 0.10 0.00 50 1005.8
20260508190052 18 208 0.0 6.4 0.00 0.10 0.00 48 1006.1
20260508184556 18 81 0.0 1.6 0.00 0.10 0.00 52 1006.1
20260508183051 18 0 0.0 3.2 0.00 0.10 0.00 52 1006.5
20260508181556 18 0 0.0 6.4 0.00 0.10 0.00 51 1006.7
20260508180057 18 123 1.6 11.3 0.00 0.10 0.00 53 1006.7
20260508174611 18 131 0.0 4.8 0.00 0.10 0.00 56 1006.9
20260508173056 18 94 1.6 6.4 0.00 0.10 0.00 57 1007.2
20260508171552 18 128 0.0 3.2 0.00 0.10 0.00 60 1007.5
20260508170056 17 80 0.0 4.8 0.00 0.10 0.00 61 1007.8
20260508164555 16 0 0.0 3.2 0.00 0.10 0.00 63 1008.0
20260508163058 16 150 0.0 4.8 0.00 0.10 0.00 62 1008.2